When you browse on this site, cookies collect data to enhance your experience and personalize the content and advertising you see.
Visit our Privacy Policy to learn more. By continuing to use the site, you agree to this use of cookies and data.
  • In Schweiz
  • Länderverzeichnis
  • Für 7 Tage
  • Wassertemperatur
  • Satellitenkarten
  • Wetterkarte
  • Widgets
  • user-avatar
    Anmelden

    Stündliche Wetter Shkoder

    Heute, 22 Mai, Mittwoch

    Zeit Temperatur Niederschläge Wind Luftdruck Luftfeuchtigkeit
    00:00 +14°C° 0 mm 1 m/S 740 mmHg 86%
    01:00 +14°C° 0 mm 1 m/S 740 mmHg 87%
    02:00 +14°C° 0 mm 1 m/S 740 mmHg 86%
    03:00 +14°C° 0 mm 1 m/S 740 mmHg 86%
    04:00 +14°C° 0 mm 1 m/S 740 mmHg 86%
    05:00 +15°C° 0 mm 1 m/S 740 mmHg 83%
    06:00 +16°C° 0 mm 1 m/S 740 mmHg 81%
    07:00 +18°C° 0 mm 1 m/S 740 mmHg 78%
    08:00 +19°C° 0 mm 1 m/S 740 mmHg 74%
    09:00 +19°C° 0 mm 2 m/S 740 mmHg 70%
    10:00 +20°C° 0 mm 2 m/S 740 mmHg 66%
    11:00 +20°C° 0.1 mm 2 m/S 740 mmHg 65%
    12:00 +21°C° 0.1 mm 3 m/S 739 mmHg 64%
    13:00 +21°C° 0.1 mm 3 m/S 739 mmHg 63%
    14:00 +21°C° 0 mm 3 m/S 739 mmHg 62%
    15:00 +20°C° 0 mm 3 m/S 739 mmHg 61%
    16:00 +20°C° 0 mm 2 m/S 739 mmHg 61%
    17:00 +18°C° 0 mm 2 m/S 739 mmHg 66%
    18:00 +18°C° 0 mm 1 m/S 739 mmHg 72%
    19:00 +14°C° 0 mm 0 m/S 739 mmHg 77%
    20:00 +14°C° 0 mm 1 m/S 739 mmHg 77%
    21:00 +14°C° 0 mm 1 m/S 740 mmHg 78%
    22:00 +13°C° 0 mm 1 m/S 740 mmHg 78%
    23:00 +13°C° 0 mm 1 m/S 740 mmHg 76%

    Morgen, 23 Mai, Donnerstag

    Zeit Temperatur Niederschläge Wind Luftdruck Luftfeuchtigkeit
    00:00 +13°C° 0 mm 1 m/S 740 mmHg 74%
    01:00 +13°C° 0 mm 1 m/S 740 mmHg 72%
    02:00 +13°C° 0 mm 1 m/S 740 mmHg 70%
    03:00 +13°C° 0 mm 1 m/S 740 mmHg 69%
    04:00 +13°C° 0 mm 1 m/S 739 mmHg 67%
    05:00 +15°C° 0 mm 1 m/S 739 mmHg 65%
    06:00 +16°C° 0 mm 1 m/S 739 mmHg 63%
    07:00 +17°C° 0 mm 0 m/S 740 mmHg 60%
    08:00 +20°C° 0 mm 1 m/S 740 mmHg 57%
    09:00 +21°C° 0 mm 1 m/S 740 mmHg 54%
    10:00 +23°C° 0 mm 1 m/S 740 mmHg 51%
    11:00 +23°C° 0 mm 2 m/S 739 mmHg 51%
    12:00 +23°C° 0 mm 2 m/S 739 mmHg 52%
    13:00 +24°C° 0 mm 2 m/S 739 mmHg 52%
    14:00 +23°C° 0 mm 2 m/S 738 mmHg 55%
    15:00 +21°C° 0 mm 2 m/S 738 mmHg 59%
    16:00 +21°C° 0 mm 2 m/S 738 mmHg 63%
    17:00 +19°C° 0.1 mm 2 m/S 738 mmHg 70%
    18:00 +19°C° 0.1 mm 1 m/S 738 mmHg 78%
    19:00 +16°C° 0.1 mm 1 m/S 738 mmHg 85%
    20:00 +15°C° 0.1 mm 1 m/S 738 mmHg 86%
    21:00 +15°C° 0.1 mm 1 m/S 738 mmHg 87%
    22:00 +15°C° 0.1 mm 1 m/S 739 mmHg 88%
    23:00 +15°C° 0.1 mm 1 m/S 738 mmHg 87%

    übermorgen, 24 Mai, Freitag

    Zeit Temperatur Niederschläge Wind Luftdruck Luftfeuchtigkeit
    00:00 +15°C° 0.1 mm 1 m/S 738 mmHg 86%
    01:00 +15°C° 0.1 mm 2 m/S 738 mmHg 84%
    02:00 +15°C° 0.1 mm 1 m/S 738 mmHg 84%
    03:00 +14°C° 0.1 mm 1 m/S 738 mmHg 84%
    04:00 +14°C° 0.1 mm 1 m/S 737 mmHg 84%
    05:00 +16°C° 0 mm 1 m/S 738 mmHg 80%
    06:00 +18°C° 0 mm 1 m/S 738 mmHg 76%
    07:00 +19°C° 0 mm 1 m/S 738 mmHg 72%
    08:00 +20°C° 0 mm 1 m/S 738 mmHg 67%
    09:00 +21°C° 0 mm 1 m/S 738 mmHg 62%
    10:00 +23°C° 0 mm 1 m/S 738 mmHg 57%
    11:00 +23°C° 0.8 mm 1 m/S 737 mmHg 60%
    12:00 +23°C° 0.8 mm 2 m/S 737 mmHg 63%
    13:00 +21°C° 0.8 mm 2 m/S 737 mmHg 65%
    14:00 +21°C° 1.4 mm 2 m/S 737 mmHg 68%
    15:00 +21°C° 1.4 mm 2 m/S 737 mmHg 70%
    16:00 +20°C° 1.4 mm 2 m/S 736 mmHg 72%
    17:00 +20°C° 0.6 mm 1 m/S 737 mmHg 78%
    18:00 +19°C° 0.6 mm 1 m/S 737 mmHg 83%
    19:00 +16°C° 0.6 mm 1 m/S 737 mmHg 88%
    20:00 +16°C° 0 mm 1 m/S 737 mmHg 88%
    21:00 +15°C° 0 mm 1 m/S 738 mmHg 88%
    22:00 +15°C° 0 mm 1 m/S 738 mmHg 88%
    23:00 +14°C° 0 mm 1 m/S 738 mmHg 88%

    25 Mai, Samstag

    Zeit Temperatur Niederschläge Wind Luftdruck Luftfeuchtigkeit
    00:00 +14°C° 0 mm 1 m/S 738 mmHg 87%
    01:00 +14°C° 0 mm 1 m/S 738 mmHg 86%
    02:00 +14°C° 0 mm 1 m/S 738 mmHg 85%
    03:00 +13°C° 0 mm 1 m/S 739 mmHg 85%
    04:00 +13°C° 0 mm 1 m/S 739 mmHg 84%
    05:00 +15°C° 0 mm 1 m/S 739 mmHg 80%
    06:00 +16°C° 0 mm 1 m/S 739 mmHg 77%
    07:00 +17°C° 0 mm 0 m/S 739 mmHg 73%
    08:00 +20°C° 0 mm 1 m/S 739 mmHg 70%
    09:00 +21°C° 0 mm 1 m/S 739 mmHg 67%
    10:00 +21°C° 0 mm 2 m/S 740 mmHg 63%
    11:00 +23°C° 0 mm 2 m/S 740 mmHg 64%
    12:00 +23°C° 0 mm 2 m/S 739 mmHg 65%
    13:00 +23°C° 0 mm 2 m/S 739 mmHg 66%
    14:00 +23°C° 0.1 mm 2 m/S 739 mmHg 67%
    15:00 +23°C° 0.1 mm 2 m/S 739 mmHg 67%
    16:00 +23°C° 0.1 mm 2 m/S 739 mmHg 68%
    17:00 +20°C° 0 mm 2 m/S 739 mmHg 74%
    18:00 +20°C° 0 mm 1 m/S 739 mmHg 81%
    19:00 +18°C° 0 mm 1 m/S 740 mmHg 87%
    20:00 +16°C° 0 mm 1 m/S 740 mmHg 88%
    21:00 +16°C° 0 mm 1 m/S 740 mmHg 88%
    22:00 +15°C° 0 mm 1 m/S 741 mmHg 89%
    23:00 +15°C° 0 mm 1 m/S 741 mmHg 88%

    26 Mai, Sonntag

    Zeit Temperatur Niederschläge Wind Luftdruck Luftfeuchtigkeit
    00:00 +15°C° 0 mm 1 m/S 740 mmHg 86%
    01:00 +15°C° 0 mm 1 m/S 740 mmHg 85%
    02:00 +14°C° 0 mm 1 m/S 740 mmHg 84%
    03:00 +14°C° 0 mm 1 m/S 740 mmHg 83%
    04:00 +14°C° 0 mm 1 m/S 740 mmHg 82%
    05:00 +16°C° 0 mm 1 m/S 740 mmHg 76%
    06:00 +18°C° 0 mm 1 m/S 740 mmHg 71%
    07:00 +18°C° 0 mm 0 m/S 740 mmHg 66%
    08:00 +21°C° 0 mm 1 m/S 740 mmHg 63%
    09:00 +23°C° 0 mm 1 m/S 740 mmHg 60%
    10:00 +24°C° 0 mm 2 m/S 740 mmHg 57%
    11:00 +24°C° 0 mm 2 m/S 740 mmHg 56%
    12:00 +24°C° 0 mm 2 m/S 740 mmHg 55%
    13:00 +25°C° 0 mm 2 m/S 740 mmHg 54%
    14:00 +24°C° 0 mm 2 m/S 739 mmHg 55%
    15:00 +24°C° 0 mm 2 m/S 739 mmHg 57%
    16:00 +24°C° 0 mm 2 m/S 739 mmHg 59%
    17:00 +21°C° 0 mm 2 m/S 739 mmHg 67%
    18:00 +20°C° 0 mm 1 m/S 739 mmHg 74%
    19:00 +19°C° 0 mm 1 m/S 739 mmHg 81%
    20:00 +18°C° 0 mm 1 m/S 740 mmHg 81%
    21:00 +18°C° 0 mm 1 m/S 740 mmHg 81%
    22:00 +18°C° 0 mm 1 m/S 740 mmHg 80%
    23:00 +18°C° 0 mm 1 m/S 740 mmHg 77%

    27 Mai, Montag

    Zeit Temperatur Niederschläge Wind Luftdruck Luftfeuchtigkeit
    00:00 +18°C° 0 mm 1 m/S 740 mmHg 74%
    01:00 +19°C° 0 mm 1 m/S 740 mmHg 71%
    02:00 +19°C° 0 mm 1 m/S 740 mmHg 69%
    03:00 +18°C° 0 mm 1 m/S 740 mmHg 68%
    04:00 +18°C° 0 mm 1 m/S 740 mmHg 67%
    05:00 +20°C° 0 mm 1 m/S 740 mmHg 65%
    06:00 +21°C° 0 mm 1 m/S 740 mmHg 63%
    07:00 +23°C° 0 mm 1 m/S 740 mmHg 61%
    08:00 +24°C° 0 mm 1 m/S 740 mmHg 56%
    09:00 +25°C° 0 mm 1 m/S 740 mmHg 51%
    10:00 +27°C° 0 mm 1 m/S 740 mmHg 45%
    11:00 +28°C° 0 mm 1 m/S 739 mmHg 44%
    12:00 +29°C° 0 mm 1 m/S 739 mmHg 42%
    13:00 +30°C° 0 mm 1 m/S 739 mmHg 40%
    14:00 +29°C° 0 mm 1 m/S 739 mmHg 43%
    15:00 +29°C° 0 mm 1 m/S 738 mmHg 46%
    16:00 +29°C° 0 mm 1 m/S 738 mmHg 49%
    17:00 +27°C° 0 mm 1 m/S 738 mmHg 54%
    18:00 +25°C° 0 mm 1 m/S 738 mmHg 58%
    19:00 +21°C° 0 mm 0 m/S 738 mmHg 63%
    20:00 +21°C° 0 mm 0 m/S 738 mmHg 65%
    21:00 +22°C° 0 mm 1 m/S 739 mmHg 66%
    22:00 +21°C° 0 mm 1 m/S 739 mmHg 68%
    23:00 +21°C° 0 mm 1 m/S 738 mmHg 67%
    Mehr zeigen